Location: Paderno d�Adda
(45.6667°N, 9.4333°E)
Time: 17:10:39
(UTC+00:00)

Cosmos 1867 - Pass Details

Date: 19 September 2020
Orbit: 777 x 799 km, 65.0° (Epoch: 20 October)

Event Time Altitude Azimuth Distance (km) Brightness Sun altitude
Rises 17:54:30 0° 326° (NW) 3,313 7.5 -6.0°
Reaches altitude 10° 17:57:01 10° 332° (NNW) 2,380 6.6 -6.4°
Maximum altitude 18:02:21 51° 48° (NE) 996 3.9 -7.3°
Drops below altitude 10° 18:07:40 10° 124° (SE) 2,364 5.5 -8.2°
Enters shadow 18:08:20 - 126° (SE) 2,614 5.7 -8.3°
